RH
61 51 44 43 34 27 32 32 40 43 47 53 54 57 64 66 67 75 76 79 89 93 97 96 95 96 94 93 97 93 98 96 95 96 94 89 90 83 86 82 84 86 92 89 91 94 87 75 75 83 91 93 88 91
44 36 30 25 26 25 31 36 44 47 48 57 59 63 67 71 75 79 78 85 90 98 95 93 88 86 88 91 93 98 95 96 97 96 94 94 90 86 83 86 85 91 85 87 86 80 78 82 93 97 98 98 98 96
29 23 18 21 26 28 31 35 40 44 45 51 57 65 70 73 80 83 86 93 98 98 93 90 81 82 82 83 92 99 97 98 96 96 97 96 94 88 89 89 88 88 88 96 94 82 93 96 98 97 97 97 96 94
16 15 20 27 29 32 34 38 43 47 54 58 63 71 76 80 85 91 91 93 97 98 97 82 83 85 83 89 98 98 98 98 98 98 95 94 94 92 93 89 93 90 93 93 94 95 97 96 97 96 91 91 93 92
19 21 25 26 29 34 40 46 49 52 57 63 71 78 84 90 93 92 90 94 95 98 95 87 81 84 88 91 97 98 99 98 94 94 96 96 96 97 95 95 90 91 93 94 91 93 93 93 89 82 79 82 83 82
18 21 24 30 35 41 46 55 58 66 70 77 83 88 91 98 96 92 93 92 92 95 92 86 86 87 90 91 98 97 97 97 96 98 98 98 98 98 97 93 86 87 91 94 93 88 71 59 46 48 56 59 60 61
20 23 27 34 38 45 54 60 70 77 84 91 94 91 96 96 97 97 96 93 87 88 95 91 88 85 90 91 89 95 98 98 98 98 98 98 98 98 97 94 71 69 81 71 62 58 50 44 46 47 49 51 54 55
23 24 27 31 38 48 60 70 85 94 95 96 96 94 97 98 98 92 86 87 90 94 95 94 87 86 87 86 91 96 98 98 98 98 98 97 98 97 96 75 60 53 49 49 48 46 44 48 43 43 44 46 49 51
21 22 25 30 40 55 68 84 95 96 94 97 94 95 98 98 95 84 84 88 93 96 97 95 92 85 81 85 95 96 96 97 97 97 97 97 97 94 77 65 52 48 46 45 47 45 49 43 40 42 45 46 46 43
20 22 25 30 37 51 72 85 98 97 92 99 95 97 92 94 90 87 87 92 96 97 96 92 86 92 93 91 90 93 98 97 96 97 98 97 90 74 62 52 48 45 45 48 47 44 43 38 35 35 35 33 32 35
22 23 26 31 42 54 65 80 90 93 92 93 94 91 95 95 88 89 90 87 90 89 93 97 98 97 95 89 89 98 97 97 97 96 97 92 79 55 45 45 44 43 43 46 42 37 34 31 30 30 31 34 34 34
23 26 30 35 43 49 58 62 72 90 96 87 83 88 90 86 88 88 88 84 88 91 96 97 98 98 93 87 90 97 97 97 97 97 97 82 60 52 43 40 42 42 43 40 37 34 31 30 29 30 34 35 37 37
27 29 33 39 47 50 52 58 69 73 77 80 81 82 81 84 88 85 81 86 93 94 94 95 96 96 90 86 91 97 97 96 97 96 87 70 60 60 65 58 47 45 45 45 41 37 35 32 30 31 34 38 41 40
30 31 36 43 49 56 62 66 68 66 71 73 77 81 81 86 81 78 80 85 89 92 93 92 92 92 82 74 89 96 97 97 96 96 91 82 70 63 70 83 79 74 67 54 48 39 38 37 36 35 33 37 47 46
36 39 42 50 58 63 68 69 70 67 67 71 75 82 85 81 84 86 85 88 90 89 87 83 83 79 70 70 79 89 94 96 96 96 96 95 90 92 96 97 94 86 81 83 79 61 47 43 41 40 40 41 42 51
41 45 50 58 59 62 64 68 68 67 69 72 75 79 79 85 89 92 95 92 84 78 77 78 75 68 68 69 68 72 77 84 87 91 97 98 98 98 98 97 97 96 94 89 90 86 69 58 45 48 50 50 51 50
44 46 54 57 58 61 65 65 64 65 66 70 76 79 80 84 87 86 85 80 81 76 75 75 69 62 62 64 65 64 65 66 74 78 88 95 97 96 95 94 94 94 96 97 92 91 84 74 62 50 43 48 57 57
45 49 54 56 60 62 63 64 65 66 68 71 74 76 81 83 82 77 71 70 70 66 63 64 62 62 60 60 57 59 63 69 78 85 93 96 96 96 96 94 93 92 92 96 97 95 90 82 73 60 52 49 55 58
48 51 57 61 64 67 68 66 66 68 68 70 73 76 79 77 73 68 65 68 68 65 65 63 62 60 59 63 68 73 80 84 89 94 96 97 97 97 96 94 90 85 86 96 98 95 93 84 77 67 56 56 57 58
52 51 54 59 65 67 69 67 67 68 68 69 71 71 68 66 64 63 61 62 67 72 75 77 76 76 77 81 86 91 96 98 97 95 95 96 96 95 92 84 80 80 84 97 98 96 93 87 78 62 61 60 56 54
55 55 52 53 58 63 62 63 65 67 64 61 60 59 56 53 54 59 71 84 86 89 89 88 91 93 96 97 98 97 98 98 98 96 94 90 87 85 79 81 89 96 98 98 98 95 90 83 70 68 66 56 53 52
58 58 57 55 54 55 55 56 58 57 56 57 61 66 69 74 78 81 82 87 88 88 93 94 95 96 97 97 94 88 82 78 75 73 71 74 74 76 82 94 96 97 97 98 98 94 88 79 73 67 57 51 52 53
73 74 69 63 61 58 56 57 61 64 70 74 80 82 84 86 86 87 88 88 89 92 93 95 96 97 97 89 78 64 62 66 74 76 75 71 76 88 91 92 94 95 95 97 93 88 84 75 63 53 52 51 52 62
81 82 78 77 67 63 61 63 65 69 71 74 80 83 86 88 91 92 91 89 90 92 93 96 97 96 94 83 61 61 71 75 72 69 76 84 87 89 89 91 93 94 94 93 78 71 63 54 51 49 50 59 68 78
89 86 80 74 72 68 66 63 62 62 64 70 78 85 89 91 93 93 90 88 91 94 96 97 95 92 86 77 64 71 74 70 71 77 82 83 86 85 83 85 84 81 76 65 55 51 51 51 58 62 68 76 80 77
88 81 78 70 68 64 61 60 63 67 69 73 81 85 87 89 91 90 89 92 96 97 97 94 91 87 80 75 73 79 78 78 76 69 70 69 62 62 62 62 58 55 52 51 52 59 67 70 73 76 80 82 78 80
87 84 80 76 75 70 70 69 68 69 73 77 83 88 89 92 91 89 93 96 96 96 94 91 88 83 81 76 79 84 81 73 66 61 59 56 53 53 53 52 50 49 52 63 71 77 80 81 82 83 84 81 85 83
67 66 74 80 81 80 79 80 81 81 81 88 92 95 94 93 94 95 96 96 97 96 94 91 87 80 76 73 76 78 75 62 59 57 55 54 57 56 55 54 56 65 71 75 79 82 85 86 87 83 85 87 84 81
53 55 62 80 87 85 84 84 85 86 90 94 97 97 97 97 96 96 95 93 91 90 87 82 76 73 65 56 58 62 66 66 63 60 58 55 56 56 56 56 56 57 62 66 72 80 81 78 78 84 82 76 70 74
64 69 71 85 87 83 79 81 84 88 90 91 91 90 88 87 87 87 87 88 88 84 77 70 61 55 52 53 56 61 66 70 72 73 72 70 69 69 68 66 63 63 65 67 71 77 79 79 77 74 71 72 74 77
81 80 78 83 83 82 85 87 88 89 89 88 87 86 86 86 85 84 85 82 77 70 64 59 59 57 57 63 64 65 67 67 67 67 64 62 60 62 63 64 64 62 63 65 69 76 81 76 72 72 74 77 83 88
96 91 89 88 89 90 91 90 89 88 86 86 85 84 84 84 82 78 75 71 65 62 64 66 67 68 69 68 68 68 68 66 60 52 49 50 52 55 54 54 55 59 64 68 72 73 72 73 75 78 81 87 88 86
98 93 92 95 95 93 93 93 92 90 89 87 85 84 82 78 73 70 68 68 68 69 70 72 72 71 72 72 71 68 60 52 48 47 49 52 54 55 58 60 61 64 67 71 74 75 73 75 76 77 76 78 81 83